Home   Weather   Talkeetna   Past weeks

Flag for USA Past Weather in Talkeetna, Alaska, USA — Yesterday and Last 2 Weeks

Now
51 °F

Overcast.


Feels Like: 51 °F
Forecast: 38 / 48 °F
Wind: 3 mph from Northeast

Location: Talkeetna Weather Reporting Station

Current Time: Sep 24, 2016 at 2:41:37 PM

Latest Report: Sep 24, 2016 at 1:53 PM


Visibility: 10 mi

Pressure: 29.73 "Hg

Humidity: 71%

Dew Point: 42 °F

Location of TalkeetnaLocation

Past Weather in Talkeetna — Graph

°F

Talkeetna Temperature Yesterday

Maximum temperature yesterday: 52 °F (at 12:53 PM)
Minimum temperature yesterday: 43 °F (at 11:53 PM)
Average temperature yesterday: 48 °F

High & Low Weather Summary for the Past Weeks

 TemperatureHumidityPressure
High67 °F (Sep 10, 4:53 PM)100% (Sep 16, 12:53 AM)30.21 "Hg (Sep 16, 12:53 AM)
Low34 °F (Sep 10, 5:53 AM)22% (Sep 10, 4:53 PM)28.80 "Hg (Sep 22, 7:53 AM)
Average49 °F81%29.66 "Hg
* Reported Sep 9 12:53 PM — Sep 24 12:53 PM, Talkeetna, Weather by CustomWeather, © 2016

Note: Actual official high and low records may vary slightly from our data, if they occured in-between our weather recording intervals... More about our weather records

Advertising

Talkeetna Weather History for the Previous 24 Hours

Scroll right to see more
 ConditionsComfort  
Time TempWeatherWind HumidityBarometerVisibility
12:53 PM
Sat, Sep 24
49 °FMostly cloudy.3 mph77%29.73 "Hg10 mi
11:53 AM47 °FOvercast.3 mph83%29.73 "Hg10 mi
10:53 AM45 °FOvercast.3 mph86%29.72 "Hg10 mi
9:53 AM43 °FOvercast.No wind89%29.71 "Hg10 mi
8:53 AM42 °FMostly cloudy.No wind92%29.70 "Hg10 mi
7:53 AM42 °FMore clouds than sun.No wind92%29.69 "Hg10 mi
6:53 AM42 °FMostly cloudy.No wind92%29.68 "Hg10 mi
5:53 AM42 °FMostly cloudy.No wind92%29.67 "Hg10 mi
4:53 AM42 °FMostly cloudy.No wind92%29.66 "Hg10 mi
3:53 AM42 °FOvercast.No wind92%29.66 "Hg10 mi
2:53 AM42 °FPassing clouds.No wind96%29.65 "Hg10 mi
1:53 AM43 °FLow clouds.No wind93%29.65 "Hg10 mi
12:53 AM43 °FOvercast.No wind93%29.64 "Hg10 mi
11:53 PM
Fri, Sep 23
43 °FOvercast.No wind93%29.63 "Hg10 mi
10:53 PM44 °FMostly cloudy.No wind93%29.62 "Hg10 mi
9:53 PM44 °FMostly cloudy.No wind93%29.59 "Hg10 mi
8:53 PM44 °FMostly cloudy.No wind93%29.56 "Hg10 mi
7:53 PM45 °FScattered clouds.3 mph93%29.54 "Hg10 mi
6:53 PM49 °FLight rain. Mostly cloudy.5 mph77%29.54 "Hg8 mi
5:53 PM49 °FPassing clouds.No wind80%29.52 "Hg10 mi
4:53 PM47 °FLight rain. Mostly cloudy.5 mph80%29.51 "Hg9 mi
3:53 PM51 °FMostly cloudy.7 mph71%29.50 "Hg10 mi
2:53 PM48 °FCloudy.No wind86%29.49 "Hg10 mi
Weather by CustomWeather, © 2016

See weather overviewHow to use our weather pages